This is the latest recevied weather packets stored in our database for station/object SQ9NFI-4. If no packets are shown the sender has not sent any weather packets the latest 10 day(s).
| Time | Temp. | Humidity | Pressure | Rain* | Wind** | Luminosity | Snow |
|---|---|---|---|---|---|---|---|
| 1778131178 | 16.11° C | 79% | 1008.8 hPa | 0 mm | - | 23 W/m² | - |
| 1778130878 | 16.11° C | 79% | 1008.8 hPa | 0 mm | - | 20 W/m² | - |
| 1778130578 | 16.11° C | 79% | 1008.8 hPa | 0 mm | - | 17 W/m² | - |
| 1778130278 | 16.11° C | 77% | 1008.8 hPa | 0 mm | - | 17 W/m² | - |
| 1778129978 | 16.11° C | 78% | 1008.8 hPa | 0 mm | - | 17 W/m² | - |
| 1778129678 | 16.11° C | 77% | 1008.8 hPa | 0 mm | - | 17 W/m² | - |
| 1778129378 | 16.11° C | 73% | 1008.8 hPa | 0 mm | - | 20 W/m² | - |
| 1778129078 | 16.11° C | 74% | 1008.8 hPa | 0 mm | - | 14 W/m² | - |
| 1778128778 | 16.11° C | 72% | 1008.8 hPa | 0 mm | - | 15 W/m² | - |
| 1778128478 | 16.67° C | 71% | 1008.8 hPa | 0 mm | - | 12 W/m² | - |
| 1778128178 | 16.67° C | 71% | 1008.8 hPa | 0 mm | - | 9 W/m² | - |
| 1778127878 | 16.67° C | 71% | 1008.5 hPa | 0 mm | - | 8 W/m² | - |
| 1778127578 | 16.67° C | 71% | 1008.5 hPa | 0 mm | - | 8 W/m² | - |
| 1778127278 | 16.11° C | 71% | 1008.5 hPa | 0 mm | - | 7 W/m² | - |
| 1778126978 | 16.11° C | 75% | 1008.5 hPa | 0 mm | - | 7 W/m² | - |
| 1778126683 | 15.56° C | 76% | 1008.5 hPa | 0 mm | - | 5 W/m² | - |
| 1778126378 | 15.56° C | 80% | 1008.5 hPa | 0 mm | - | 4 W/m² | - |
| 1778126078 | 15.56° C | 79% | 1008.5 hPa | 0 mm | - | 4 W/m² | - |
| 1778125778 | 15.56° C | 82% | 1008.5 hPa | 0 mm | - | 4 W/m² | - |
| 1778125478 | 15.56° C | 80% | 1008.5 hPa | 0 mm | - | 4 W/m² | - |
| 1778125178 | 15.56° C | 80% | 1008.5 hPa | 0 mm | - | 4 W/m² | - |
| 1778124878 | 15.56° C | 81% | 1008.5 hPa | 0 mm | - | 5 W/m² | - |
| 1778124578 | 15.56° C | 78% | 1008.5 hPa | 0 mm | - | 4 W/m² | - |
| 1778124278 | 15.56° C | 79% | 1008.5 hPa | 0 mm | - | 4 W/m² | - |
| 1778123978 | 15.56° C | 77% | 1008.5 hPa | 0 mm | - | 2 W/m² | - |
* Rain latest hour (hover to see other rain measurements)
** Current wind speed in m/s (hover to see current wind gust speed)